Dewpoint
17 15 20 21 19 17 23 22 23 22 28 22 36 34 31 30 28 27 43 39 39 41 39 39 41 44 44 49 47 45 48 51 55 54 54 55 56 57 59 60 62 65 65 66 67 68 67 68 68 70 72 72 72 72 73 74 74 75 75 75 75 75 75
14 16 18 17 20 18 21 21 23 28 28 29 32 21 34 26 20 31 36 31 32 32 26 49 42 42 40 43 48 45 49 53 53 53 56 56 56 57 60 62 64 65 65 66 66 66 67 67 68 70 72 73 73 73 73 73 74 74 74 75 75 75 75
14 16 19 17 20 22 17 19 25 19 26 25 45 34 26 24 24 23 33 35 31 33 29 34 36 41 41 46 50 48 49 50 51 52 55 57 57 57 59 60 63 63 64 65 66 66 66 68 70 71 72 72 72 73 73 72 73 73 74 74 75 75 75
16 14 13 11 12 18 19 24 21 23 25 31 31 28 37 27 22 24 24 31 27 38 33 34 31 38 48 45 48 47 46 49 51 52 53 56 58 58 58 59 60 62 63 64 65 65 66 68 70 70 70 70 70 71 72 72 72 74 74 74 75 74 73
16 12 12 7 9 14 17 18 20 23 26 25 25 31 25 24 27 26 23 25 31 37 41 37 39 42 44 44 47 53 51 49 50 52 53 57 58 59 59 59 60 61 62 63 64 66 66 68 69 68 68 69 69 69 71 71 72 72 72 73 74 74 74
14 11 14 9 8 9 14 15 19 19 22 25 21 23 24 29 23 29 24 21 32 33 41 45 42 43 40 44 47 48 49 49 52 53 54 58 58 60 60 59 59 60 62 63 64 66 67 67 68 68 68 68 68 69 69 70 70 71 70 72 74 74 74
14 13 14 21 15 8 11 14 16 19 18 22 23 21 29 28 27 29 33 26 28 39 42 43 44 42 37 41 44 46 47 50 50 53 51 56 60 59 59 60 59 60 63 64 65 68 69 69 69 69 69 68 68 69 69 70 70 70 70 70 73 74 74
19 18 18 20 22 12 9 11 14 18 16 17 19 23 37 24 32 26 26 26 25 41 53 49 42 52 47 52 48 49 47 50 52 53 53 57 60 61 60 60 60 62 64 66 68 69 70 70 70 70 69 70 69 69 69 69 69 70 70 70 71 73 73
21 18 21 16 20 15 12 11 14 17 17 19 22 35 45 28 31 23 24 19 23 37 54 54 50 44 42 42 44 51 51 55 53 54 57 58 61 63 61 62 64 65 64 67 69 69 71 71 70 71 70 70 69 70 69 69 69 69 70 71 70 71 72
18 19 17 16 21 17 16 20 15 20 15 17 29 24 36 23 39 34 25 21 32 41 51 47 49 50 50 47 47 49 53 56 54 55 56 60 61 63 63 64 65 65 66 68 69 70 71 70 69 71 71 70 70 70 70 69 69 70 70 70 70 70 70
19 23 29 35 26 21 16 16 16 15 16 15 22 35 33 22 38 34 31 34 32 38 35 42 42 50 47 44 50 51 53 54 57 60 59 59 61 62 61 64 65 68 69 68 69 70 70 69 70 71 70 70 69 71 71 70 70 70 71 71 72 70 70
29 22 28 27 22 16 16 15 14 15 16 19 21 24 20 45 32 23 34 45 34 33 38 42 45 48 55 56 55 54 56 57 56 57 61 60 59 61 63 64 65 65 67 69 70 70 69 69 71 70 70 70 70 71 71 71 70 70 70 72 72 71 71
24 19 18 23 23 16 16 15 14 15 18 21 20 30 27 42 25 20 39 49 44 37 30 38 43 49 53 51 54 53 54 57 58 59 57 57 57 60 60 63 65 66 67 69 69 69 70 70 70 70 70 71 72 72 71 71 70 70 71 72 72 72 72
20 20 18 20 21 20 16 14 15 15 15 19 19 21 24 31 34 31 39 49 42 33 31 34 40 48 46 52 56 55 54 52 57 57 58 56 57 58 60 62 63 66 67 68 69 70 71 70 71 70 71 72 71 71 70 70 72 71 72 73 73 72 71
20 18 18 18 19 19 18 17 16 16 15 17 19 18 22 31 29 25 30 47 46 39 39 39 49 59 53 52 48 48 54 56 56 57 56 57 57 58 60 63 63 65 66 67 68 69 70 70 71 71 71 72 71 69 69 70 71 71 71 73 73 72 72
23 20 18 17 17 18 17 16 17 18 16 19 20 25 28 32 37 40 38 40 39 41 44 43 47 49 51 50 54 54 56 55 58 58 57 58 59 59 60 62 62 64 64 66 67 68 68 69 70 71 72 71 71 70 70 70 70 70 71 71 71 73 73
26 26 19 17 18 20 20 21 18 19 20 22 21 23 29 28 29 33 33 30 37 42 47 43 45 44 48 50 51 55 57 59 57 59 59 59 60 60 63 63 63 62 61 63 66 66 66 67 69 69 71 70 71 71 71 71 71 70 71 71 73 73 73
29 27 21 21 22 18 19 26 21 23 20 21 21 21 26 31 32 32 34 34 45 48 43 42 44 46 50 54 56 56 57 58 59 58 60 60 60 60 60 61 61 62 63 63 64 65 67 68 67 69 70 69 70 70 71 72 72 72 72 72 73 73 73
29 30 26 22 20 20 34 43 42 29 20 21 22 33 44 40 42 44 42 42 46 49 45 47 52 53 54 54 54 51 52 55 56 58 57 60 60 60 61 62 60 64 65 66 66 66 64 64 66 67 68 69 71 71 72 72 73 73 73 73 73 73 73
33 29 27 22 22 35 41 40 42 42 31 29 35 39 45 48 46 48 44 43 49 52 50 49 49 53 54 54 57 57 55 56 55 53 55 57 57 58 59 63 65 66 63 64 63 65 64 66 66 66 67 68 68 68 70 71 71 72 73 73 72 72 72
30 32 27 25 40 36 38 38 41 38 36 31 28 28 39 48 49 50 49 51 51 51 50 51 48 53 52 52 52 53 52 56 56 54 53 54 56 57 62 61 62 66 65 65 63 68 67 65 66 65 66 66 67 68 69 70 72 71 71 72 72 72 71
34 32 28 28 28 28 36 43 45 45 43 44 45 46 43 47 49 49 50 51 53 52 50 50 49 54 47 44 49 53 52 53 56 56 57 57 59 61 61 64 65 67 67 66 68 64 66 66 66 67 67 67 69 70 70 70 71 70 71 71 72 72 71
36 34 29 28 27 30 45 44 43 45 46 45 48 40 36 48 50 49 49 49 50 50 49 52 52 49 41 46 53 54 56 55 54 57 59 59 61 63 64 63 63 64 67 67 65 67 67 66 67 68 68 68 69 70 71 69 69 70 71 71 72 71 71
38 36 33 29 36 37 44 44 45 44 46 46 42 29 32 51 49 50 50 48 48 50 52 50 52 49 47 51 54 54 59 61 63 65 65 64 63 63 65 66 67 69 69 68 67 66 66 68 68 70 70 70 71 71 70 68 69 69 70 71 71 71 71
39 40 35 35 39 46 46 45 46 46 47 45 33 27 43 52 52 52 52 48 50 53 53 53 51 54 55 55 57 59 62 62 63 64 64 65 65 65 65 66 67 67 67 67 67 67 69 69 67 68 68 69 69 69 69 68 68 68 69 70 71 71 71
35 39 36 35 40 46 46 47 47 48 40 35 33 48 52 53 53 53 52 52 53 54 55 54 54 54 54 55 56 59 60 62 64 63 62 62 63 64 66 67 66 66 66 68 67 67 68 68 68 68 70 69 69 69 68 68 68 67 69 70 70 70 70
42 42 39 35 31 47 46 47 48 50 45 48 52 52 52 51 52 52 52 52 53 52 52 52 53 51 51 52 54 55 57 59 61 63 63 63 63 63 64 64 65 65 66 65 64 65 65 66 67 67 68 69 68 68 68 68 67 68 69 69 70 70 70
44 41 40 39 46 47 47 47 48 52 51 52 53 49 46 48 47 49 49 50 51 52 52 51 51 51 52 54 55 55 55 56 59 63 65 64 63 62 61 62 63 64 65 64 65 66 66 67 68 68 69 69 68 68 68 68 68 68 69 69 70 69 68
48 47 49 51 52 48 47 48 49 50 50 50 49 48 46 46 46 50 48 50 51 52 53 54 54 53 54 54 53 54 55 56 57 59 62 64 63 63 63 62 64 64 64 64 64 65 66 67 67 68 69 68 68 68 68 68 68 68 69 69 69 68 67
50 51 55 55 50 48 48 46 47 45 45 46 46 46 48 50 50 51 50 50 51 52 54 52 54 55 55 55 54 55 56 57 59 63 63 64 65 64 64 66 65 64 64 65 65 65 66 66 66 68 69 68 69 69 67 67 68 68 68 68 68 67 67
45 43 48 52 51 49 48 48 47 48 48 48 50 52 52 51 50 50 52 52 53 54 55 55 55 55 55 56 58 60 61 60 61 60 62 63 64 65 65 66 66 66 64 64 64 64 64 64 64 64 66 67 69 68 67 67 67 68 68 67 66 66 66
48 47 51 49 51 51 49 49 50 48 48 48 49 50 51 51 50 50 51 51 52 53 54 56 56 56 57 58 59 57 60 61 62 63 64 64 64 65 65 65 66 66 66 64 65 65 67 66 65 64 64 65 66 66 64 64 65 68 67 66 65 65 64
52 51 51 50 50 50 51 48 48 49 49 48 50 49 49 48 48 50 50 50 50 51 52 55 57 57 58 58 59 56 60 62 63 64 65 66 66 67 65 64 65 66 67 66 67 67 67 66 66 65 65 64 64 65 64 64 66 66 65 65 65 64 64
46 45 48 47 45 49 53 50 50 49 50 48 48 49 49 49 51 51 49 49 50 50 52 53 53 54 55 56 58 57 59 61 64 65 65 65 66 66 66 66 67 66 66 66 66 66 66 66 65 65 65 65 65 63 64 64 65 66 66 64 65 64 63
44 48 50 54 53 52 54 55 54 53 52 54 51 49 48 47 49 51 51 49 50 50 51 52 52 54 54 54 54 52 54 58 61 63 65 65 65 65 65 65 65 66 67 66 66 65 65 64 63 63 64 64 65 63 65 65 64 66 66 66 64 64 64
46 48 48 50 50 48 50 50 51 53 55 53 50 52 52 52 51 49 48 49 49 52 51 50 51 50 50 50 50 51 52 53 56 58 61 63 64 64 63 63 65 65 65 65 65 65 65 63 62 63 62 63 65 63 65 66 66 67 67 65 65 64 63
44 47 47 48 49 50 51 48 50 50 49 49 53 52 51 52 51 53 53 53 49 47 50 49 51 51 50 48 50 50 50 50 53 54 57 60 60 62 62 62 63 65 65 64 65 65 63 62 62 62 62 63 64 63 65 66 66 66 66 65 63 63 64